Year,Month,Day,Hour,Minute,Value (Times are PST for temperature in C)
2014,10,16,11,15,12.10
2014,10,16,11,16,12.10
2014,10,16,11,17,12.20
2014,10,16,11,18,12.20
2014,10,16,11,19,12.30
2014,10,16,11,20,12.20
2014,10,16,11,21,12.20
2014,10,16,11,22,12.20
2014,10,16,11,23,12.20
2014,10,16,11,24,12.20
2014,10,16,11,25,12.30
2014,10,16,11,26,12.30
2014,10,16,11,27,12.30
2014,10,16,11,28,12.30
2014,10,16,11,29,12.30
2014,10,16,11,30,12.30
2014,10,16,11,31,12.30
2014,10,16,11,32,12.30
2014,10,16,11,33,12.30
2014,10,16,11,34,12.30
2014,10,16,11,35,12.30
2014,10,16,11,36,12.30
2014,10,16,11,37,12.30
2014,10,16,11,38,12.30
2014,10,16,11,39,12.30
2014,10,16,11,40,12.30
2014,10,16,11,41,12.30
2014,10,16,11,42,12.30
2014,10,16,11,43,12.30
2014,10,16,11,44,12.30
2014,10,16,11,45,12.30
2014,10,16,11,46,12.30
2014,10,16,11,47,12.30
2014,10,16,11,48,12.30
2014,10,16,11,49,12.30
2014,10,16,11,50,12.30
2014,10,16,11,51,12.30
2014,10,16,11,52,12.30
2014,10,16,11,53,12.30
2014,10,16,11,54,12.30
2014,10,16,11,55,12.30
2014,10,16,11,56,12.30
2014,10,16,11,57,12.30
2014,10,16,11,58,12.40
2014,10,16,11,59,12.50
2014,10,16,12,00,12.60
2014,10,16,12,01,12.60
2014,10,16,12,02,12.60
2014,10,16,12,03,12.70
2014,10,16,12,04,12.80
2014,10,16,12,05,12.80
2014,10,16,12,06,12.80
2014,10,16,12,07,12.80
2014,10,16,12,08,12.80
2014,10,16,12,09,12.90
2014,10,16,12,10,12.90
2014,10,16,12,11,13.00
2014,10,16,12,12,13.00
2014,10,16,12,13,13.10
2014,10,16,12,14,13.20
2014,10,16,12,15,13.30
2014,10,16,12,16,13.30
2014,10,16,12,17,13.40
2014,10,16,12,18,13.40
2014,10,16,12,19,13.30
2014,10,16,12,20,13.30
2014,10,16,12,21,13.30
2014,10,16,12,22,13.30
2014,10,16,12,23,13.30
2014,10,16,12,24,13.40
2014,10,16,12,25,13.40
2014,10,16,12,26,13.50
2014,10,16,12,27,13.50
2014,10,16,12,28,13.60
2014,10,16,12,29,13.70
2014,10,16,12,30,13.70
2014,10,16,12,31,13.70
2014,10,16,12,32,13.80
2014,10,16,12,33,13.80
2014,10,16,12,34,13.80
2014,10,16,12,35,13.90
2014,10,16,12,36,13.90
2014,10,16,12,37,13.90
2014,10,16,12,38,13.90
2014,10,16,12,39,13.90
2014,10,16,12,40,14.00
2014,10,16,12,41,14.00
2014,10,16,12,42,14.10
2014,10,16,12,43,14.10
2014,10,16,12,44,14.20
2014,10,16,12,45,14.20
2014,10,16,12,46,14.30
2014,10,16,12,47,14.30
2014,10,16,12,48,14.30
2014,10,16,12,49,14.20
2014,10,16,12,50,14.20
2014,10,16,12,51,14.20
2014,10,16,12,52,14.20
2014,10,16,12,53,14.20
2014,10,16,12,54,14.20
2014,10,16,12,55,14.20
2014,10,16,12,56,14.10
2014,10,16,12,57,14.10
2014,10,16,12,58,14.00
2014,10,16,12,59,14.00
2014,10,16,13,00,14.00
2014,10,16,13,01,14.10
2014,10,16,13,02,14.10
2014,10,16,13,03,14.20
2014,10,16,13,04,14.20
2014,10,16,13,05,14.20
2014,10,16,13,06,14.20
2014,10,16,13,07,14.20
2014,10,16,13,08,14.20
2014,10,16,13,09,14.30
2014,10,16,13,10,14.30
2014,10,16,13,11,14.30
2014,10,16,13,12,14.30
2014,10,16,13,13,14.20
2014,10,16,13,14,14.30
2014,10,16,13,15,14.30
2014,10,16,13,16,14.30
2014,10,16,13,17,14.30
2014,10,16,13,18,14.30
2014,10,16,13,19,14.30
2014,10,16,13,20,14.40
2014,10,16,13,21,14.40
2014,10,16,13,22,14.40
2014,10,16,13,23,14.40
2014,10,16,13,24,14.40
2014,10,16,13,25,14.40
2014,10,16,13,26,14.50
2014,10,16,13,27,14.50
2014,10,16,13,28,14.50
2014,10,16,13,29,14.50
2014,10,16,13,30,14.40
2014,10,16,13,31,14.30
2014,10,16,13,32,14.30
2014,10,16,13,33,14.40
2014,10,16,13,34,14.40
2014,10,16,13,35,14.30
2014,10,16,13,36,14.30
2014,10,16,13,37,14.30
2014,10,16,13,38,14.30
2014,10,16,13,39,14.30
2014,10,16,13,40,14.30
2014,10,16,13,41,14.20
2014,10,16,13,42,14.20
2014,10,16,13,43,14.20
2014,10,16,13,44,14.20
2014,10,16,13,45,14.20
2014,10,16,13,46,14.20
2014,10,16,13,47,14.20
2014,10,16,13,48,14.20
2014,10,16,13,49,14.20
2014,10,16,13,50,14.20
2014,10,16,13,51,14.20
2014,10,16,13,52,14.20
2014,10,16,13,53,14.20
2014,10,16,13,54,14.20
2014,10,16,13,55,14.10
2014,10,16,13,56,14.10
2014,10,16,13,57,14.10
2014,10,16,13,58,14.00
2014,10,16,13,59,14.00
2014,10,16,14,00,14.00
2014,10,16,14,01,14.00
2014,10,16,14,02,14.00
2014,10,16,14,03,14.00
2014,10,16,14,04,14.00
2014,10,16,14,05,14.00
2014,10,16,14,06,14.00
2014,10,16,14,07,14.10
2014,10,16,14,08,14.10
2014,10,16,14,09,14.10
2014,10,16,14,10,14.20
2014,10,16,14,11,14.20
2014,10,16,14,12,14.20
2014,10,16,14,13,14.20
2014,10,16,14,14,14.30
2014,10,16,14,15,14.30
2014,10,16,14,16,14.40
2014,10,16,14,17,14.50
2014,10,16,14,18,14.50
2014,10,16,14,19,14.60
2014,10,16,14,20,14.60
2014,10,16,14,21,14.60
2014,10,16,14,22,14.70
2014,10,16,14,23,14.70
2014,10,16,14,24,14.70
2014,10,16,14,25,14.80
2014,10,16,14,26,14.80
2014,10,16,14,27,14.80
2014,10,16,14,28,14.80
2014,10,16,14,29,14.80
2014,10,16,14,30,14.80
2014,10,16,14,31,14.80
2014,10,16,14,32,14.80
2014,10,16,14,33,14.80
2014,10,16,14,34,14.70
2014,10,16,14,35,14.70
2014,10,16,14,36,14.70
2014,10,16,14,37,14.60
2014,10,16,14,38,14.60
2014,10,16,14,39,14.50
2014,10,16,14,40,14.50
2014,10,16,14,41,14.40
2014,10,16,14,42,14.40
2014,10,16,14,43,14.40
2014,10,16,14,44,14.40
2014,10,16,14,45,14.30
2014,10,16,14,46,14.30
2014,10,16,14,47,14.30
2014,10,16,14,48,14.20
2014,10,16,14,49,14.20
2014,10,16,14,50,14.20
2014,10,16,14,51,14.20
2014,10,16,14,52,14.20
2014,10,16,14,53,14.20
2014,10,16,14,54,14.20
2014,10,16,14,55,14.20
2014,10,16,14,56,14.20
2014,10,16,14,57,14.30
2014,10,16,14,58,14.30
2014,10,16,14,59,14.30
2014,10,16,15,00,14.40
2014,10,16,15,01,14.40
2014,10,16,15,02,14.40
2014,10,16,15,03,14.40
2014,10,16,15,04,14.30
2014,10,16,15,05,14.30
2014,10,16,15,06,14.30
2014,10,16,15,07,14.30
2014,10,16,15,08,14.30
2014,10,16,15,09,14.30
2014,10,16,15,10,14.30
2014,10,16,15,11,14.30
2014,10,16,15,12,14.30
2014,10,16,15,13,14.30
2014,10,16,15,14,14.30
2014,10,16,15,15,14.30
2014,10,16,15,16,14.30
2014,10,16,15,17,14.30
2014,10,16,15,18,14.30
2014,10,16,15,19,14.30
2014,10,16,15,20,14.30
2014,10,16,15,21,14.30
2014,10,16,15,22,14.30
2014,10,16,15,23,14.30
2014,10,16,15,24,14.40
2014,10,16,15,25,14.40
2014,10,16,15,26,14.40
2014,10,16,15,27,14.40
2014,10,16,15,28,14.40
2014,10,16,15,29,14.40
2014,10,16,15,30,14.40
2014,10,16,15,31,14.40
2014,10,16,15,32,14.40
2014,10,16,15,33,14.40
2014,10,16,15,34,14.50
2014,10,16,15,35,14.50
2014,10,16,15,36,14.50
2014,10,16,15,37,14.50
2014,10,16,15,38,14.50
2014,10,16,15,39,14.50
2014,10,16,15,40,14.60
2014,10,16,15,41,14.60
2014,10,16,15,42,14.60
2014,10,16,15,43,14.60
2014,10,16,15,44,14.60
2014,10,16,15,45,14.60
2014,10,16,15,46,14.60
2014,10,16,15,47,14.60
2014,10,16,15,48,14.60
2014,10,16,15,49,14.60
2014,10,16,15,50,14.60
2014,10,16,15,51,14.60
2014,10,16,15,52,14.70
2014,10,16,15,53,14.80
2014,10,16,15,54,14.80
2014,10,16,15,55,14.80
2014,10,16,15,56,14.80
2014,10,16,15,57,14.80
2014,10,16,15,58,14.80
2014,10,16,15,59,14.90
2014,10,16,16,00,14.90
2014,10,16,16,01,14.90
2014,10,16,16,02,14.90
2014,10,16,16,03,15.00
2014,10,16,16,04,15.00
2014,10,16,16,05,15.10
2014,10,16,16,06,15.10
2014,10,16,16,07,15.10
2014,10,16,16,08,15.10
2014,10,16,16,09,15.20
2014,10,16,16,10,15.20
2014,10,16,16,11,15.20
2014,10,16,16,12,15.30
2014,10,16,16,13,15.30
2014,10,16,16,14,15.30
2014,10,16,16,15,15.30
2014,10,16,16,16,15.30
2014,10,16,16,17,15.30
2014,10,16,16,18,15.30
2014,10,16,16,19,15.30
2014,10,16,16,20,15.20
2014,10,16,16,21,15.30
2014,10,16,16,22,15.30
2014,10,16,16,23,15.30
2014,10,16,16,24,15.30
2014,10,16,16,25,15.30
2014,10,16,16,26,15.30
2014,10,16,16,27,15.30
2014,10,16,16,28,15.30
2014,10,16,16,29,15.30
2014,10,16,16,30,15.30
2014,10,16,16,31,15.30
2014,10,16,16,32,15.30
2014,10,16,16,33,15.30
2014,10,16,16,34,15.20
2014,10,16,16,35,15.20
2014,10,16,16,36,15.20
2014,10,16,16,37,15.20
2014,10,16,16,38,15.10
2014,10,16,16,39,15.10
2014,10,16,16,40,15.10
2014,10,16,16,41,15.10
2014,10,16,16,42,15.10
2014,10,16,16,43,15.10
2014,10,16,16,44,15.10
2014,10,16,16,45,15.10
2014,10,16,16,46,15.10
2014,10,16,16,47,15.00
2014,10,16,16,48,15.00
2014,10,16,16,49,15.00
2014,10,16,16,50,15.00
2014,10,16,16,51,14.90
2014,10,16,16,52,14.90
2014,10,16,16,53,14.90
2014,10,16,16,54,14.80
2014,10,16,16,55,14.80
2014,10,16,16,56,14.80
2014,10,16,16,57,14.80
2014,10,16,16,58,14.80
2014,10,16,16,59,14.80
2014,10,16,17,00,14.80
2014,10,16,17,01,14.80
2014,10,16,17,02,14.80
2014,10,16,17,03,14.80
2014,10,16,17,04,14.70
2014,10,16,17,05,14.70
2014,10,16,17,06,14.70
2014,10,16,17,07,14.70
2014,10,16,17,08,14.70
2014,10,16,17,09,14.70
2014,10,16,17,10,14.70
2014,10,16,17,11,14.60
2014,10,16,17,12,14.60
2014,10,16,17,13,14.60
2014,10,16,17,14,14.60
2014,10,16,17,15,14.60
2014,10,16,17,16,14.60
2014,10,16,17,17,14.60
2014,10,16,17,18,14.60
2014,10,16,17,19,14.60
2014,10,16,17,20,14.60
2014,10,16,17,21,14.60
2014,10,16,17,22,14.60
2014,10,16,17,23,14.60
2014,10,16,17,24,14.60
2014,10,16,17,25,14.60
2014,10,16,17,26,14.60
